Thunderstorms From: 20-05-2018 15:00 Until: 21-05-2018 15:00 warning for: Thunderstorms Level: Yellow info button

Although rather usual in this region, locally or potentially dangerous phenomena are expected. (such as local winds, summer thunderstorms, rising streams or high waves) Be aware and pay attention to the latest weather updates, especially if you carry out activities exposed to weather or close to a stream or shoreline. 


Meteo18 Weather Cam more information Meteo18 Weather Cam


warning for Thunderstorms more information blitzortung!


Rain radar more information rain snow radar


Visit our other weather sites:

Template documentation
and downloads

And another site



Weather Underground History page Text

Daily Summary for January 31, 2018 Units:  Metric    English   Both
« Previous Day
Next Day »
Daily Weekly Monthly Yearly Custom
  High: Low: Average:
Temperature: -17.8 °C -15.1 °C -13.8 °C
Dew Point: -17.8 °C -15.8 °C -14.6 °C
Humidity: Humidity % 84 % 90 %
Wind Speed: 0 km/h 5.1 km/h 24.1 km/h
Wind Gust: 0 km/h - -
Wind:- - SW
Pressure: 0 hPa 34144.4 hPa -
Precipitation: 398.78 mm    
Historical Graphs
 
 
Tabular Data for January 31, 2018
Time Temperature Dew Point Pressure Wind Wind Speed Wind Gust Humidity Rainfall Rate (Hourly)
-17.8 °C -17.8 °C 0 hPa Calm     Humidity % 0 mm
00:03 -13.1 °C -13.7 °C 34750.5 hPa WSW 10.3 km/h 10.3 km/h 93 % 0 mm
00:09 -13.1 °C -13.7 °C 34750.5 hPa SW 10.3 km/h 10.3 km/h 93 % 0 mm
00:15 -13.1 °C -13.8 °C 34750.5 hPa SW 7.6 km/h 12.9 km/h 92 % 0 mm
00:21 -13.1 °C -13.8 °C 34750.5 hPa WSW 5.1 km/h 12.9 km/h 92 % 0 mm
00:27 -13.1 °C -13.9 °C 34750.5 hPa WSW 7.6 km/h 10.3 km/h 91 % 0 mm
00:33 -13.1 °C -13.9 °C 34740.4 hPa WSW 7.6 km/h 12.9 km/h 91 % 0 mm
00:39 -13.1 °C -13.9 °C 34740.4 hPa SW 7.6 km/h 10.3 km/h 90 % 0 mm
00:45 -13.1 °C -13.9 °C 34750.5 hPa West 7.6 km/h 15.6 km/h 90 % 0 mm
00:51 -13.1 °C -14.1 °C 34740.4 hPa WSW 10.3 km/h 10.3 km/h 89 % 0 mm
00:57 -13.1 °C -14.1 °C 34740.4 hPa West 15.6 km/h 23.3 km/h 89 % 0 mm
01:03 -13.1 °C -14.1 °C 34750.5 hPa WSW 5.1 km/h 12.9 km/h 88 % 0 mm
01:09 -13.1 °C -14.1 °C 34740.4 hPa WSW 10.3 km/h 10.3 km/h 89 % 0 mm
01:15 -13.1 °C -14.2 °C 34740.4 hPa South 5.1 km/h 15.6 km/h 88 % 0 mm
01:21 -13.1 °C -14.2 °C 34726.8 hPa SW 12.7 km/h 12.9 km/h 88 % 0 mm
01:27 -13.1 °C -14.1 °C 34726.8 hPa WSW 7.6 km/h 18.2 km/h 88 % 0 mm
01:33 -13.1 °C -14.1 °C 34726.8 hPa West 5.1 km/h 7.7 km/h 89 % 0 mm
01:39 -13.1 °C -14.1 °C 34726.8 hPa SW 7.6 km/h 12.9 km/h 89 % 0 mm
01:45 -13.2 °C -14 °C 34716.7 hPa SSW 5.1 km/h 15.6 km/h 90 % 0 mm
01:51 -13.2 °C -14 °C 34716.7 hPa SW 12.7 km/h 12.9 km/h 91 % 0 mm
01:57 -13.3 °C -13.9 °C 34716.7 hPa SSW 7.6 km/h 12.9 km/h 92 % 0 mm
02:03 -13.3 °C -13.9 °C 34716.7 hPa SW 10.3 km/h 15.6 km/h 92 % 0 mm
02:09 -13.3 °C -14.1 °C 34703.1 hPa West 5.1 km/h 12.9 km/h 91 % 0 mm
02:15 -13.3 °C -14.1 °C 34703.1 hPa SW 5.1 km/h 18.2 km/h 91 % 0 mm
02:21 -13.3 °C -14.1 °C 34703.1 hPa WSW 7.6 km/h 15.6 km/h 91 % 0 mm
02:27 -13.3 °C -14.1 °C 34693 hPa SW 12.7 km/h 15.6 km/h 91 % 0 mm
02:33 -13.3 °C -14.1 °C 34693 hPa WSW 7.6 km/h 12.9 km/h 91 % 0 mm
02:39 -13.3 °C -14.1 °C 34693 hPa WSW 7.6 km/h 18.2 km/h 91 % 0 mm
02:45 -13.3 °C -14.1 °C 34693 hPa West 7.6 km/h 20.8 km/h 91 % 0 mm
02:51 -13.3 °C -14.1 °C 34693 hPa WSW 10.3 km/h 12.9 km/h 91 % 0 mm
02:57 -13.3 °C -14.1 °C 34682.8 hPa WSW 10.3 km/h 12.9 km/h 91 % 0 mm
03:03 -13.2 °C -14.1 °C 34669.3 hPa SW 10.3 km/h 23.3 km/h 90 % 0 mm
03:09 -13.2 °C -14.1 °C 34669.3 hPa SSW 17.9 km/h 28.5 km/h 90 % 0 mm
03:15 -13.2 °C -14.1 °C 34669.3 hPa WSW 20.9 km/h 28.5 km/h 89 % 0 mm
03:21 -13.2 °C -14.1 °C 34669.3 hPa West 20.9 km/h 25.9 km/h 89 % 0 mm
03:27 -13.2 °C -14.1 °C 34669.3 hPa SW 23 km/h 28.5 km/h 89 % 0 mm
03:33 -13.2 °C -14.1 °C 34669.3 hPa WSW 12.7 km/h 25.9 km/h 90 % 0 mm
03:39 -13.2 °C -14.1 °C 34669.3 hPa WSW 15.6 km/h 25.9 km/h 90 % 0 mm
03:45 -13.2 °C -14 °C 34659.1 hPa WSW 23 km/h 25.9 km/h 91 % 0 mm
03:51 -13.3 °C -14.1 °C 34659.1 hPa WSW 23 km/h 25.9 km/h 91 % 0 mm
03:57 -13.3 °C -14.1 °C 34659.1 hPa SW 20.9 km/h 28.5 km/h 91 % 0 mm
04:03 -13.3 °C -14 °C 34659.1 hPa West 17.9 km/h 23.3 km/h 92 % 0 mm
04:09 -13.4 °C -14.1 °C 34659.1 hPa SW 7.6 km/h 18.2 km/h 92 % 0 mm
04:15 -13.4 °C -14 °C 34645.6 hPa SW 7.6 km/h 15.6 km/h 93 % 0 mm
04:21 -13.4 °C -14 °C 34645.6 hPa SW 17.9 km/h 18.2 km/h 93 % 0 mm
04:27 -13.4 °C -14.1 °C 34645.6 hPa SW 7.6 km/h 20.8 km/h 93 % 0 mm
04:33 -13.4 °C -14.1 °C 34645.6 hPa SW 12.7 km/h 12.9 km/h 93 % 0 mm
04:39 -13.4 °C -14.1 °C 34645.6 hPa SW 12.7 km/h 15.6 km/h 93 % 0 mm
04:45 -13.4 °C -14.1 °C 34645.6 hPa SSW 15.6 km/h 23.3 km/h 93 % 0 mm
04:51 -13.4 °C -14.1 °C 34645.6 hPa SW 12.7 km/h 23.3 km/h 93 % 0 mm
04:57 -13.4 °C -14.1 °C 34645.6 hPa SW 20.9 km/h 20.9 km/h 93 % 0 mm
05:03 -13.4 °C -14.1 °C 34635.4 hPa SW 15.6 km/h 23.3 km/h 92 % 0 mm
05:09 -13.4 °C -14.2 °C 34635.4 hPa SW 12.7 km/h 23.3 km/h 91 % 0 mm
05:16 -13.4 °C -14.2 °C 34625.2 hPa SW 7.6 km/h 23.3 km/h 91 % 0 mm
05:22 -13.4 °C -14.2 °C 34625.2 hPa SW 7.6 km/h 18.2 km/h 91 % 0 mm
05:28 -13.4 °C -14.2 °C 34625.2 hPa WSW 7.6 km/h 18.2 km/h 91 % 0 mm
05:34 -13.4 °C -14.2 °C 34611.7 hPa SW 20.9 km/h 28.5 km/h 91 % 0 mm
05:40 -13.4 °C -14.2 °C 34611.7 hPa SW 17.9 km/h 25.9 km/h 91 % 0 mm
05:46 -13.4 °C -14.2 °C 34611.7 hPa WSW 17.9 km/h 18.2 km/h 90 % 0 mm
05:52 -13.4 °C -14.2 °C 34611.7 hPa SW 15.6 km/h 23.3 km/h 90 % 0 mm
05:58 -13.4 °C -14.2 °C 34611.7 hPa SW 23 km/h 36.2 km/h 90 % 0 mm
06:04 -13.4 °C -14.2 °C 34611.7 hPa SW 7.6 km/h 28.5 km/h 90 % 0 mm
06:10 -13.4 °C -14.2 °C 34601.5 hPa WSW 33.6 km/h 36.2 km/h 90 % 0 mm
06:16 -13.4 °C -14.2 °C 34601.5 hPa SW 12.7 km/h 23.3 km/h 90 % 0 mm
06:22 -13.4 °C -14.4 °C 34601.5 hPa SW 26.2 km/h 38.8 km/h 89 % 0 mm
06:28 -13.4 °C -14.4 °C 34601.5 hPa WSW 23 km/h 33.6 km/h 89 % 0 mm
06:34 -13.4 °C -14.4 °C 34591.4 hPa WSW 15.6 km/h 28.5 km/h 89 % 0 mm
06:40 -13.4 °C -14.4 °C 34601.5 hPa SW 15.6 km/h 25.9 km/h 89 % 0 mm
06:46 -13.4 °C -14.5 °C 34591.4 hPa WSW 26.2 km/h 51.8 km/h 88 % 0 mm
06:52 -13.4 °C -14.6 °C 34591.4 hPa SW 33.6 km/h 41.4 km/h 87 % 0 mm
06:58 -13.4 °C -14.6 °C 34591.4 hPa SSW 23 km/h 28.5 km/h 87 % 0 mm
07:04 -13.5 °C -14.6 °C 34577.8 hPa WSW 10.3 km/h 36.2 km/h 87 % 0 mm
07:10 -13.5 °C -14.6 °C 34577.8 hPa WSW 23 km/h 36.2 km/h 87 % 0 mm
07:16 -13.5 °C -14.7 °C 34591.4 hPa SW 23 km/h 41.4 km/h 86 % 0 mm
07:22 -13.5 °C -14.8 °C 34591.4 hPa WSW 26.2 km/h 44.1 km/h 85 % 0 mm
07:28 -13.6 °C -14.8 °C 34591.4 hPa West 26.2 km/h 26.2 km/h 86 % 0 mm
07:34 -13.6 °C -14.9 °C 34577.8 hPa West 28.5 km/h 28.5 km/h 85 % 0 mm
07:40 -13.6 °C -14.9 °C 34591.4 hPa SW 17.9 km/h 41.4 km/h 85 % 0 mm
07:46 -13.7 °C -15 °C 34577.8 hPa West 28.5 km/h 41.4 km/h 85 % 0 mm
07:52 -13.7 °C -15 °C 34577.8 hPa WSW 20.9 km/h 33.6 km/h 85 % 0 mm
07:58 -13.7 °C -15 °C 34577.8 hPa WSW 17.9 km/h 33.6 km/h 85 % 0 mm
08:04 -13.7 °C -15.1 °C 34577.8 hPa WSW 15.6 km/h 38.8 km/h 85 % 0 mm
08:10 -13.7 °C -14.9 °C 34577.8 hPa WSW 33.6 km/h 33.6 km/h 86 % 0 mm
08:16 -13.7 °C -15.1 °C 34577.8 hPa SSW 10.3 km/h 38.8 km/h 85 % 0 mm
08:22 -13.7 °C -15.1 °C 34577.8 hPa SSW 17.9 km/h 33.6 km/h 85 % 0 mm
08:28 -13.8 °C -15.1 °C 34577.8 hPa WSW 10.3 km/h 28.5 km/h 85 % 0 mm
08:34 -13.8 °C -15 °C 34577.8 hPa SW 23 km/h 36.2 km/h 86 % 0 mm
08:40 -13.8 °C -15.1 °C 34577.8 hPa SW 36.5 km/h 38.8 km/h 86 % 0 mm
08:46 -13.9 °C -15.1 °C 34577.8 hPa SW 20.9 km/h 44.1 km/h 86 % 0 mm
08:52 -13.9 °C -15.2 °C 34577.8 hPa SW 15.6 km/h 41.4 km/h 86 % 0 mm
08:58 -13.9 °C -15.1 °C 34567.7 hPa SW 31.4 km/h 31.4 km/h 87 % 0 mm
09:04 -13.9 °C -15.1 °C 34567.7 hPa SW 26.2 km/h 26.2 km/h 87 % 0 mm
09:10 -13.9 °C -15.1 °C 34554.1 hPa WSW 28.5 km/h 36.2 km/h 87 % 0 mm
09:16 -13.9 °C -15.2 °C 34554.1 hPa SW 20.9 km/h 33.6 km/h 86 % 0 mm
09:22 -13.9 °C -15.2 °C 34554.1 hPa SW 33.6 km/h 36.2 km/h 86 % 0 mm
09:28 -13.9 °C -15.1 °C 34554.1 hPa SW 26.2 km/h 33.6 km/h 87 % 0 mm
09:34 -13.9 °C -15.1 °C 34554.1 hPa SSW 26.2 km/h 41.4 km/h 87 % 0 mm
09:40 -13.8 °C -14.9 °C 34567.7 hPa WSW 20.9 km/h 25.9 km/h 87 % 0 mm
09:46 -13.8 °C -15.1 °C 34554.1 hPa SSW 20.9 km/h 36.2 km/h 86 % 0 mm
09:52 -13.8 °C -15.1 °C 34544 hPa WSW 26.2 km/h 51.8 km/h 86 % 0 mm
09:58 -13.8 °C -14.9 °C 34544 hPa SW 28.5 km/h 49.2 km/h 87 % 0 mm
10:04 -13.8 °C -14.9 °C 34544 hPa SW 41.7 km/h 44.1 km/h 87 % 0 mm
10:10 -13.8 °C -14.9 °C 34544 hPa SW 28.5 km/h 41.4 km/h 87 % 0 mm
10:16 -13.9 °C -15 °C 34533.8 hPa SW 31.4 km/h 38.8 km/h 87 % 0 mm
10:22 -13.9 °C -15 °C 34533.8 hPa SSW 41.7 km/h 41.7 km/h 87 % 0 mm
10:28 -13.9 °C -14.9 °C 34533.8 hPa WSW 15.6 km/h 46.7 km/h 88 % 0 mm
10:34 -13.9 °C -15 °C 34533.8 hPa SW 28.5 km/h 33.6 km/h 87 % 0 mm
10:40 -13.9 °C -15 °C 34520.3 hPa SW 23 km/h 46.7 km/h 87 % 0 mm
10:46 -13.9 °C -15 °C 34533.8 hPa South 31.4 km/h 36.2 km/h 87 % 0 mm
10:52 -13.8 °C -15.1 °C 34533.8 hPa WSW 20.9 km/h 31.1 km/h 86 % 0 mm
10:58 -13.8 °C -15.1 °C 34533.8 hPa SSW 41.7 km/h 46.7 km/h 86 % 0 mm
11:04 -13.8 °C -15.1 °C 34533.8 hPa WSW 15.6 km/h 31.1 km/h 86 % 0 mm
11:10 -13.8 °C -15.1 °C 34520.3 hPa SW 57 km/h 57 km/h 86 % 0 mm
11:16 -13.8 °C -15 °C 34520.3 hPa SW 33.6 km/h 44.1 km/h 86 % 0 mm
11:22 -13.8 °C -15 °C 34520.3 hPa SSW 26.2 km/h 36.2 km/h 86 % 0 mm
11:28 -13.7 °C -14.9 °C 34520.3 hPa SW 20.9 km/h 44.1 km/h 86 % 0 mm
11:34 -13.7 °C -15.1 °C 34510.1 hPa SSW 31.4 km/h 46.7 km/h 85 % 0 mm
11:40 -13.7 °C -15 °C 34510.1 hPa SW 33.6 km/h 41.4 km/h 85 % 0 mm
11:46 -13.7 °C -15 °C 34510.1 hPa SW 26.2 km/h 49.2 km/h 85 % 0 mm
11:52 -13.7 °C -15.1 °C 34496.6 hPa SW 31.4 km/h 57 km/h 84 % 0 mm
11:58 -13.6 °C -15 °C 34496.6 hPa WSW 54.4 km/h 54.4 km/h 84 % 0 mm
12:04 -13.6 °C -15 °C 34496.6 hPa SW 41.7 km/h 54.4 km/h 84 % 0 mm
12:10 -13.6 °C -15 °C 34496.6 hPa SW 31.4 km/h 64.7 km/h 84 % 0 mm
12:16 -13.6 °C -15 °C 34486.4 hPa SW 36.5 km/h 49.2 km/h 84 % 0 mm
12:22 -13.6 °C -15 °C 34476.3 hPa SW 51.5 km/h 51.8 km/h 84 % 0 mm
12:28 -13.6 °C -15 °C 34476.3 hPa SW 33.6 km/h 64.7 km/h 84 % 0 mm
12:34 -13.6 °C -15 °C 34462.7 hPa SW 31.4 km/h 54.4 km/h 84 % 0 mm
12:40 -13.6 °C -14.9 °C 34452.6 hPa WSW 31.4 km/h 54.4 km/h 85 % 0 mm
12:46 -13.6 °C -14.9 °C 34452.6 hPa SW 31.4 km/h 46.7 km/h 85 % 0 mm
12:52 -13.5 °C -14.9 °C 34452.6 hPa SSW 46.3 km/h 54.4 km/h 84 % 0 mm
12:58 -13.5 °C -14.9 °C 34442.4 hPa WSW 33.6 km/h 51.8 km/h 84 % 0 mm
13:04 -13.5 °C -14.9 °C 34442.4 hPa WSW 26.2 km/h 59.5 km/h 84 % 0 mm
13:10 -13.5 °C -14.9 °C 34442.4 hPa SW 38.8 km/h 49.2 km/h 84 % 0 mm
13:16 -13.5 °C -14.9 °C 34442.4 hPa SW 26.2 km/h 51.8 km/h 84 % 0 mm
13:22 -13.5 °C -14.9 °C 34428.8 hPa SW 33.6 km/h 59.5 km/h 84 % 0 mm
13:28 -13.6 °C -14.9 °C 34428.8 hPa SW 62 km/h 62.1 km/h 84 % 0 mm
13:34 -13.6 °C -14.9 °C 34428.8 hPa SW 31.4 km/h 57 km/h 85 % 0 mm
13:40 -13.7 °C -15 °C 34418.7 hPa SW 38.8 km/h 44.1 km/h 85 % 0 mm
13:46 -13.6 °C -14.9 °C 34418.7 hPa WSW 28.5 km/h 57 km/h 85 % 0 mm
13:52 -13.6 °C -14.8 °C 34405.1 hPa SW 33.6 km/h 51.8 km/h 86 % 0 mm
13:58 -13.7 °C -14.8 °C 34405.1 hPa SSW 33.6 km/h 51.8 km/h 87 % 0 mm
14:04 -13.7 °C -14.8 °C 34405.1 hPa SW 17.9 km/h 44.1 km/h 88 % 0 mm
14:10 -13.7 °C -14.8 °C 34395 hPa SW 15.6 km/h 49.2 km/h 88 % 0 mm
14:16 -13.7 °C -14.8 °C 34384.8 hPa WSW 36.5 km/h 54.4 km/h 87 % 0 mm
14:22 -13.6 °C -14.7 °C 34384.8 hPa SW 49.2 km/h 49.2 km/h 87 % 0 mm
14:28 -13.6 °C -14.8 °C 34384.8 hPa SW 23 km/h 46.7 km/h 86 % 0 mm
14:34 -13.6 °C -14.7 °C 34371.3 hPa WSW 26.2 km/h 57 km/h 87 % 0 mm
14:40 -13.6 °C -14.7 °C 34371.3 hPa SSW 28.5 km/h 46.7 km/h 87 % 0 mm
14:44 -13.6 °C -14.6 °C 34371.3 hPa SW 26.2 km/h 36.2 km/h 88 % 0 mm
14:52 -13.6 °C -14.7 °C 34361.1 hPa SSW 38.8 km/h 62.1 km/h 88 % 0 mm
14:58 -13.7 °C -14.7 °C 34361.1 hPa SW 26.2 km/h 51.8 km/h 88 % 0 mm
15:04 -13.7 °C -14.7 °C 34361.1 hPa SW 38.8 km/h 41.4 km/h 88 % 0 mm
15:10 -13.6 °C -14.7 °C 34347.6 hPa SW 36.5 km/h 46.7 km/h 88 % 0 mm
15:16 -13.7 °C -14.6 °C 34347.6 hPa WSW 36.5 km/h 51.8 km/h 89 % 7.62 mm
15:22 -13.7 °C -14.7 °C 34347.6 hPa WSW 44.1 km/h 69.8 km/h 89 % 12.7 mm
15:28 -13.7 °C -14.7 °C 34337.4 hPa SSW 33.6 km/h 62.1 km/h 89 % 12.7 mm
15:34 -13.8 °C -14.6 °C 34337.4 hPa WSW 38.8 km/h 51.8 km/h 91 % 25.4 mm
15:40 -13.8 °C -14.6 °C 34337.4 hPa SW 26.2 km/h 54.4 km/h 91 % 25.4 mm
15:46 -13.8 °C -14.5 °C 34337.4 hPa SW 23 km/h 46.7 km/h 92 % 25.4 mm
15:53 -13.9 °C -14.6 °C 34327.3 hPa SW 28.5 km/h 54.4 km/h 92 % 25.4 mm
15:59 -14 °C -14.6 °C 34327.3 hPa SW 31.4 km/h 51.8 km/h 93 % 25.4 mm
16:05 -14 °C -14.5 °C 34313.7 hPa WSW 26.2 km/h 59.5 km/h 94 % 33.02 mm
16:11 -14.1 °C -14.6 °C 34313.7 hPa SW 38.8 km/h 46.7 km/h 94 % 33.02 mm
16:17 -14.1 °C -14.4 °C 34313.7 hPa SSW 20.9 km/h 46.7 km/h 95 % 25.4 mm
16:23 -14.1 °C -14.5 °C 34303.6 hPa SW 38.8 km/h 51.8 km/h 95 % 25.4 mm
16:29 -14.1 °C -14.5 °C 34303.6 hPa SW 33.6 km/h 41.4 km/h 95 % 20.32 mm
16:35 -14.1 °C -14.6 °C 34293.4 hPa SSW 33.6 km/h 57 km/h 94 % 12.7 mm
16:41 -14 °C -14.5 °C 34293.4 hPa WSW 26.2 km/h 59.5 km/h 94 % 12.7 mm
16:47 -14 °C -14.5 °C 34293.4 hPa SW 44.1 km/h 51.8 km/h 94 % 12.7 mm
16:53 -14.1 °C -14.6 °C 34293.4 hPa SW 38.8 km/h 49.2 km/h 94 % 12.7 mm
16:59 -14.1 °C -14.6 °C 34293.4 hPa SW 41.7 km/h 41.7 km/h 94 % 12.7 mm
17:05 -14.1 °C -14.6 °C 34279.9 hPa SW 36.5 km/h 51.8 km/h 94 % 12.7 mm
17:11 -14.1 °C -14.6 °C 34269.7 hPa SW 36.5 km/h 46.7 km/h 94 % 12.7 mm
17:17 -14.1 °C -14.5 °C 34269.7 hPa WSW 33.6 km/h 41.4 km/h 95 % 12.7 mm
17:23 -14.1 °C -14.5 °C 34269.7 hPa SW 44.1 km/h 64.7 km/h 95 % 12.7 mm
17:29 -14.1 °C -14.5 °C 34256.2 hPa WSW 28.5 km/h 59.5 km/h 95 % 12.7 mm
17:35 -14.1 °C -14.5 °C 34269.7 hPa SW 23 km/h 46.7 km/h 95 % 12.7 mm
17:41 -14.1 °C -14.5 °C 34256.2 hPa WSW 49.2 km/h 59.5 km/h 95 % 12.7 mm
17:47 -14.1 °C -14.5 °C 34256.2 hPa SW 17.9 km/h 57 km/h 95 % 20.32 mm
17:53 -14.1 °C -14.5 °C 34256.2 hPa WSW 36.5 km/h 59.5 km/h 95 % 20.32 mm
17:59 -14.1 °C -14.5 °C 34256.2 hPa SW 23 km/h 41.4 km/h 95 % 25.4 mm
18:05 -14.1 °C -14.5 °C 34256.2 hPa SW 33.6 km/h 49.2 km/h 95 % 33.02 mm
18:11 -14.1 °C -14.5 °C 34246 hPa SW 38.8 km/h 44.1 km/h 95 % 38.1 mm
18:17 -14.1 °C -14.5 °C 34246 hPa SW 26.2 km/h 51.8 km/h 95 % 38.1 mm
18:23 -14.1 °C -14.5 °C 34246 hPa SW 33.6 km/h 41.4 km/h 95 % 38.1 mm
18:29 -14.1 °C -14.5 °C 34235.8 hPa WSW 28.5 km/h 62.1 km/h 95 % 38.1 mm
18:35 -14.1 °C -14.4 °C 34235.8 hPa SW 26.2 km/h 49.2 km/h 95 % 45.72 mm
18:41 -14.1 °C -14.4 °C 34235.8 hPa SW 33.6 km/h 54.4 km/h 95 % 45.72 mm
18:47 -14.1 °C -14.4 °C 34222.3 hPa WSW 26.2 km/h 51.8 km/h 95 % 50.8 mm
18:53 -14.1 °C -14.4 °C 34222.3 hPa SW 31.4 km/h 49.2 km/h 95 % 50.8 mm
18:59 -14.1 °C -14.4 °C 34222.3 hPa SW 44.1 km/h 59.5 km/h 95 % 50.8 mm
19:05 -14.1 °C -14.4 °C 34222.3 hPa SW 28.5 km/h 38.8 km/h 95 % 50.8 mm
19:11 -14.1 °C -14.4 °C 34222.3 hPa SW 36.5 km/h 54.4 km/h 95 % 50.8 mm
19:17 -14.1 °C -14.4 °C 34222.3 hPa SW 28.5 km/h 38.8 km/h 95 % 50.8 mm
19:23 -14.1 °C -14.4 °C 34212.1 hPa WSW 33.6 km/h 44.1 km/h 95 % 58.42 mm
19:29 -14 °C -14.4 °C 34212.1 hPa SW 28.5 km/h 51.8 km/h 95 % 58.42 mm
19:35 -14 °C -14.4 °C 34212.1 hPa WSW 44.1 km/h 44.1 km/h 95 % 58.42 mm
19:41 -14 °C -14.4 °C 34212.1 hPa WSW 23 km/h 62.1 km/h 95 % 50.8 mm
19:47 -14 °C -14.4 °C 34212.1 hPa WSW 23 km/h 57 km/h 95 % 50.8 mm
19:53 -14 °C -14.4 °C 34212.1 hPa SW 31.4 km/h 51.8 km/h 95 % 50.8 mm
19:59 -14 °C -14.4 °C 34198.6 hPa West 23 km/h 64.7 km/h 95 % 50.8 mm
20:05 -14 °C -14.4 °C 34198.6 hPa SW 26.2 km/h 44.1 km/h 95 % 50.8 mm
20:11 -14 °C -14.4 °C 34198.6 hPa SW 33.6 km/h 51.8 km/h 95 % 58.42 mm
20:17 -14 °C -14.4 °C 34198.6 hPa WSW 38.8 km/h 54.4 km/h 95 % 58.42 mm
20:23 -14 °C -14.4 °C 34198.6 hPa SW 23 km/h 51.8 km/h 95 % 58.42 mm
20:29 -14 °C -14.4 °C 34198.6 hPa WSW 38.8 km/h 54.4 km/h 95 % 50.8 mm
20:35 -14 °C -14.4 °C 34188.4 hPa SW 46.3 km/h 51.8 km/h 95 % 58.42 mm
20:41 -14 °C -14.4 °C 34188.4 hPa West 28.5 km/h 54.4 km/h 95 % 58.42 mm
20:47 -14 °C -14.4 °C 34188.4 hPa SW 31.4 km/h 44.1 km/h 95 % 58.42 mm
20:53 -14 °C -14.4 °C 34188.4 hPa SW 26.2 km/h 46.7 km/h 95 % 58.42 mm
20:59 -13.9 °C -14.3 °C 34178.3 hPa WSW 46.3 km/h 59.5 km/h 95 % 58.42 mm
21:05 -13.9 °C -14.3 °C 34178.3 hPa SW 31.4 km/h 41.4 km/h 95 % 63.5 mm
21:11 -13.9 °C -14.3 °C 34178.3 hPa WSW 23 km/h 36.2 km/h 95 % 58.42 mm
21:17 -13.9 °C -14.3 °C 34178.3 hPa SW 49.2 km/h 51.8 km/h 95 % 58.42 mm
21:23 -13.9 °C -14.4 °C 34178.3 hPa West 36.5 km/h 54.4 km/h 94 % 63.5 mm
21:29 -13.9 °C -14.5 °C 34178.3 hPa West 17.9 km/h 51.8 km/h 93 % 71.12 mm
21:35 -13.9 °C -14.4 °C 34178.3 hPa West 20.9 km/h 44.1 km/h 94 % 63.5 mm
21:41 -13.9 °C -14.4 °C 34178.3 hPa West 36.5 km/h 51.8 km/h 94 % 63.5 mm
21:47 -13.9 °C -14.4 °C 34178.3 hPa West 26.2 km/h 26.2 km/h 94 % 58.42 mm
21:53 -13.9 °C -14.4 °C 34178.3 hPa West 7.6 km/h 36.2 km/h 94 % 63.5 mm
21:59 -13.9 °C -14.4 °C 34164.7 hPa West 23 km/h 31.1 km/h 94 % 63.5 mm
22:05 -13.9 °C -14.4 °C 34164.7 hPa WSW 20.9 km/h 36.2 km/h 94 % 63.5 mm
22:11 -13.9 °C -14.4 °C 34164.7 hPa West 17.9 km/h 28.5 km/h 94 % 63.5 mm
22:17 -13.9 °C -14.4 °C 34178.3 hPa WNW 15.6 km/h 38.8 km/h 94 % 63.5 mm
22:23 -14.2 °C -14.8 °C 34178.3 hPa WNW 23 km/h 41.4 km/h 92 % 71.12 mm
22:29 -14.6 °C -15.3 °C 34188.4 hPa WNW 44.1 km/h 51.8 km/h 91 % 96.52 mm
22:35 -14.7 °C -15.3 °C 34178.3 hPa WNW 20.9 km/h 28.5 km/h 92 % 96.52 mm
22:41 -14.8 °C -15.4 °C 34164.7 hPa WNW 10.3 km/h 36.2 km/h 92 % 96.52 mm
22:47 -14.8 °C -15.4 °C 34178.3 hPa NW 15.6 km/h 31.1 km/h 92 % 96.52 mm
22:53 -14.7 °C -15.5 °C 34164.7 hPa NNE 5.1 km/h 28.5 km/h 91 % 83.82 mm
22:59 -14.7 °C -15.4 °C 34164.7 hPa WNW 17.9 km/h 28.5 km/h 91 % 83.82 mm
23:05 -14.7 °C -15.6 °C 34164.7 hPa WNW 17.9 km/h 31.1 km/h 90 % 76.2 mm
23:11 -14.8 °C -15.7 °C 34154.6 hPa NW 5.1 km/h 31.1 km/h 89 % 76.2 mm
23:17 -14.8 °C -15.8 °C 34154.6 hPa WSW 5.1 km/h 25.9 km/h 88 % 76.2 mm
23:23 -14.8 °C -15.7 °C 34154.6 hPa West 7.6 km/h 18.2 km/h 89 % 58.42 mm
23:29 -14.8 °C -15.8 °C 34154.6 hPa WSW 7.6 km/h 15.6 km/h 89 % 38.1 mm
23:35 -14.9 °C -15.7 °C 34144.4 hPa SW 10.3 km/h 12.9 km/h 90 % 33.02 mm
23:41 -14.9 °C -15.7 °C 34144.4 hPa SW 7.6 km/h 15.6 km/h 91 % 33.02 mm
23:47 -14.9 °C -15.7 °C 34144.4 hPa SW 15.6 km/h 15.6 km/h 91 % 25.4 mm
23:53 -15 °C -15.7 °C 34144.4 hPa SW 7.6 km/h 12.9 km/h 92 % 25.4 mm
23:59 -15.1 °C -15.7 °C 34144.4 hPa SSW 7.6 km/h 12.9 km/h 92 % 20.32 mm
Meteo18
Compliments of Weather Underground - 4 mb

Script developed by  Jim McMurry - jmcmurry@mwt.net Adapted for the template by  Wim van der Kuil - Leuven-Template.eu

You find our weather info also at:

European Weather Network

Weather Underground

Equipment we use:

Weather-station
Davis Vue

Weather-program
Meteobridge

Weather-server
Raspberry PI 2 B+

Provider
1 and 1

Davis Vue

Meteobridge

Raspberry PI 2 B+

1 and 1